Zurück zum Katalog

HULIANWANG DIGUI-26

AktivKommunikationPO
NORAD 63693·PAYLOAD·🇨🇳 China

Gestartet Apr 28, 2025 von Wenchang Space Launch Site

Loading…

Nächste Überflüge (nächste 24 Stunden)

TLE

AktuellSource: Space-Track

Epoche: Sep 14, 2026, 13:43 UTC

1 63693U 25086G   26257.57209043  .00000051  00000-0  85352-4 0  9993
2 63693  86.5020 283.1196 0002045  74.8596 285.2764 13.24412720 66697

Verfolge HULIANWANG DIGUI-26 in Echtzeit mit AllMySat

Download on the App Store